Location: Bidwell Hollow
(37.7387°N, 90.1707°W)
Time: 18:20:01
(UTC+00:00)

Altair - Pass Details

Date: 12 May 2026
Orbit: 1501 x 1682 km, 47.2° (Epoch: 9 June)

Event Time Altitude Azimuth Distance (km) Brightness Sun altitude
Exits shadow 09:55:19 - 200° (SSW) 4,468 9.4 -10.9°
Reaches altitude 10° 09:57:34 10° 195° (SSW) 3,827 9.1 -10.6°
Maximum altitude 10:06:20 38° 131° (SE) 2,324 8.6 -9.1°
Drops below altitude 10° 10:15:20 10° 68° (ENE) 3,937 11.3 -7.6°
Sets 10:18:48 0° 61° (ENE) 4,936 12.9 -7.0°
